Location: Unspecified
(33.9239°N, 118.0544°W)
Time: 06:32:04
(UTC-07:00)

Cosmos 2058 - Visible Passes

Search period start: 26 June 2016 00:00
Search period end: 06 July 2016 00:00
Orbit: 563 x 587 km, 82.5° (Epoch: 26 June)

Date Brightness Start Highest point End Pass type
(mag) Time Alt. Az. Time Alt. Az. Time Alt. Az.
26 Jun 4.1 21:22:14 21° ESE 21:23:25 25° E 21:26:47 10° NE visible
26 Jun 5.3 22:58:26 14° WSW 23:00:18 18° WNW 23:03:11 10° NNW visible
27 Jun 3.6 21:25:16 24° SE 21:27:00 34° E 21:30:43 10° NNE visible
27 Jun 5.7 23:02:02 10° WSW 23:04:03 13° WNW 23:06:04 10° NW visible
28 Jun 3.1 21:28:15 22° SSE 21:30:36 48° E 21:34:33 10° NNE visible
29 Jun 2.8 21:31:09 17° S 21:34:12 70° E 21:38:17 10° NNE visible
30 Jun 2.9 21:33:57 11° S 21:37:50 82° W 21:41:57 10° N visible
01 Jul 3.4 21:37:28 10° SSW 21:41:29 57° W 21:45:32 10° N visible
02 Jul 4.2 21:41:18 10° SSW 21:45:09 40° W 21:49:02 10° N visible
03 Jul 4.8 21:45:16 10° SW 21:48:50 29° WNW 21:52:26 10° NNW visible
04 Jul 5.4 21:49:24 10° SW 21:52:32 21° WNW 21:55:42 10° NNW visible
05 Jul 5.8 21:53:47 10° WSW 21:56:16 16° WNW 21:58:47 10° NW visible
